Grand Prairie, TX

7:39 PM CST on November 21, 2017 (GMT -0600)
Grand Prairie Municipal

Weather History for KGPM - February, 2013

Change the Weather History Date:

Friday, February 1, 2013

  Actual Average (KRBD) Record (KRBD)
Temperature  
Mean Temperature 38 °F -  
Max Temperature 57 °F 55 °F 84 °F (1997)
Min Temperature 19 °F 37 °F 15 °F (2011)
Degree Days  
Heating Degree Days 27    
Moisture  
Dew Point 27 °F    
Average Humidity 54    
Maximum Humidity 100    
Minimum Humidity 33    
Precipitation  
Precipitation 0.00 in - - ()
Sea Level Pressure  
Sea Level Pressure 30.31 in    
Wind  
Wind Speed 9 mph (NE)    
Max Wind Speed 15 mph    
Max Gust Speed 20 mph    
Visibility 10 miles    
Events      
Averages and records for this station are not official NWS values.
T = Trace of Precipitation, MM = Missing Value Source: NWS Daily Summary

Daily Weather History Graph

Daily Weather History Graph

Search for Another Location

Airport or City:

Trip Planner

Search our weather history database for the weather conditions in past years. The results will help you decide how hot, cold, wet, or windy it might be!

Date:

Astronomy

Feb. 01, 2013 Rise Set
Actual Time 7:22 AM CST 6:01 PM CST
Civil Twilight 6:56 AM CST 6:27 PM CST
Nautical Twilight 6:27 AM CST 6:56 PM CST
Astronomical Twilight 5:58 AM CST 7:25 PM CST
Moon 11:45 PM CST (2/1) 10:18 AM CST (2/1)
Length of Visible Light 11h 30m
Length of Day
10h 38m
Waning Gibbous, 70% of the Moon is Illuminated
Feb 1
Waning Gibbous
Feb 3
Last Quarter
Feb 10
New
Feb 17
First Quarter
Feb 25
Full

Hourly Weather History & Observations

Time (CST) Temp. Windchill Dew Point Humidity Pressure Visibility Wind Dir Wind Speed Gust Speed Precip Events Conditions
12:15 AM 42.8 °F 37.0 °F 28.4 °F 57% 30.34 in 10.0 mi NNE 10.4 mph - N/A   Clear
12:35 AM 42.8 °F 35.4 °F 28.4 °F 57% 30.35 in 10.0 mi NNE 15.0 mph 18.4 mph N/A   Clear
1:15 AM 39.2 °F 30.8 °F 24.8 °F 56% 30.37 in 10.0 mi NNE 15.0 mph 19.6 mph N/A   Clear
1:35 AM 39.2 °F 32.5 °F 24.8 °F 56% 30.37 in 10.0 mi NNE 10.4 mph 18.4 mph N/A   Clear
1:55 AM 37.4 °F 29.3 °F 24.8 °F 60% 30.37 in 10.0 mi NNE 12.7 mph - N/A   Clear
2:15 AM 37.4 °F 29.8 °F 23.0 °F 56% 30.37 in 10.0 mi NNE 11.5 mph 17.3 mph N/A   Clear
2:35 AM 37.4 °F 29.8 °F 21.2 °F 52% 30.38 in 10.0 mi NNE 11.5 mph 18.4 mph N/A   Clear
2:55 AM 35.6 °F 26.6 °F 23.0 °F 60% 30.38 in 10.0 mi NNE 13.8 mph - N/A   Clear
3:15 AM 35.6 °F 28.6 °F 21.2 °F 56% 30.39 in 10.0 mi NNE 9.2 mph - N/A   Clear
3:35 AM 35.6 °F 29.2 °F 21.2 °F 56% 30.39 in 10.0 mi NNE 8.1 mph - N/A   Clear
3:55 AM 35.6 °F 29.2 °F 23.0 °F 60% 30.39 in 10.0 mi North 8.1 mph - N/A   Clear
4:15 AM 35.6 °F 29.2 °F 21.2 °F 56% 30.39 in 10.0 mi NNE 8.1 mph - N/A   Clear
4:35 AM 33.8 °F 25.8 °F 23.0 °F 65% 30.39 in 10.0 mi North 10.4 mph - N/A   Clear
4:55 AM 33.8 °F 26.4 °F 23.0 °F 65% 30.39 in 10.0 mi North 9.2 mph - N/A   Clear
5:15 AM 32.0 °F 23.6 °F 21.2 °F 64% 30.39 in 10.0 mi North 10.4 mph - N/A   Clear
5:55 AM 32.0 °F 23.6 °F 21.2 °F 64% 30.40 in 10.0 mi North 10.4 mph - N/A   Clear
7:50 AM 19.4 °F - 19.4 °F 100% 30.42 in 10.0 mi North - - N/A   Clear
8:50 AM 30.2 °F - 19.4 °F 64% 30.42 in 10.0 mi North - - N/A   Clear
9:50 AM 37.4 °F - 19.4 °F 48% 30.42 in 10.0 mi North - - N/A   Clear
10:51 AM 42.8 °F 38.0 °F 24.8 °F 49% 30.40 in 10.0 mi NE 8.1 mph - N/A   Clear
11:54 AM 48.2 °F - 26.6 °F 43% 30.37 in 10.0 mi ESE 6.9 mph - N/A   Clear
12:50 PM 51.8 °F - 26.6 °F 38% 30.34 in 10.0 mi East 4.6 mph - N/A   Clear
1:50 PM 53.6 °F - 28.4 °F 38% 30.30 in 10.0 mi North - - N/A   Clear
2:50 PM 57.2 °F - 28.4 °F 33% 30.27 in 10.0 mi SSE 6.9 mph - N/A   Clear
3:50 PM 57.2 °F - 30.2 °F 36% 30.25 in 10.0 mi SSE 4.6 mph - N/A   Clear
5:50 PM 57.2 °F - 32.0 °F 38% 30.21 in 10.0 mi SE 3.5 mph - N/A   Clear
8:15 PM 51.8 °F - 32.0 °F 47% 30.19 in 10.0 mi SE 3.5 mph - N/A   Clear
8:35 PM 51.8 °F - 32.0 °F 47% 30.19 in 10.0 mi Calm Calm - N/A   Clear
8:55 PM 50.0 °F - 33.8 °F 54% 30.18 in 10.0 mi Calm Calm - N/A   Clear
9:15 PM 51.8 °F - 33.8 °F 50% 30.19 in 10.0 mi SSE 3.5 mph - N/A   Clear
9:35 PM 51.8 °F - 33.8 °F 50% 30.20 in 10.0 mi Calm Calm - N/A   Clear
9:55 PM 51.8 °F - 33.8 °F 50% 30.20 in 10.0 mi Calm Calm - N/A   Clear
10:15 PM 51.8 °F - 35.6 °F 54% 30.20 in 10.0 mi Calm Calm - N/A   Clear
10:35 PM 51.8 °F - 35.6 °F 54% 30.20 in 10.0 mi South 3.5 mph - N/A   Clear
10:55 PM 50.0 °F - 35.6 °F 58% 30.20 in 10.0 mi South 3.5 mph - N/A   Clear
11:15 PM 51.8 °F - 35.6 °F 54% 30.21 in 10.0 mi South 3.5 mph - N/A   Clear
11:35 PM 51.8 °F - 37.4 °F 58% 30.20 in 10.0 mi South 8.1 mph - N/A   Clear